Location: Auckland
(36.8670°S, 174.7670°E)
Time: 11:21:12
(UTC+12:00)

Courier 1B Rocket - Pass Details

Date: 22 July 2019
Orbit: 920 x 1202 km, 28.3° (Epoch: 19 August)

Event Time Altitude Azimuth Distance (km) Brightness Sun altitude
Rises 10:40:59 0° 283° (WNW) 3,820 8.0 27.5°
Reaches altitude 10° 10:47:30 10° 326° (NW) 2,760 7.9 28.1°
Maximum altitude 10:47:48 10° 329° (NNW) 2,753 7.9 28.1°
Drops below altitude 10° 10:48:05 10° 331° (NNW) 2,751 7.9 28.1°
Sets 10:54:20 0° 16° (NNE) 3,609 9.2 28.7°
